Year,Month,Day,Hour,Minute,Value (Times are PST for temperature in C)
2023,03,30,00,00,4.40
2023,03,30,00,01,4.40
2023,03,30,00,02,4.40
2023,03,30,00,03,4.30
2023,03,30,00,04,4.30
2023,03,30,00,05,4.30
2023,03,30,00,06,4.20
2023,03,30,00,07,4.20
2023,03,30,00,08,4.20
2023,03,30,00,09,4.20
2023,03,30,00,10,4.10
2023,03,30,00,11,4.10
2023,03,30,00,12,4.10
2023,03,30,00,13,4.10
2023,03,30,00,14,4.00
2023,03,30,00,15,4.00
2023,03,30,00,16,3.90
2023,03,30,00,17,3.90
2023,03,30,00,18,3.90
2023,03,30,00,19,3.80
2023,03,30,00,20,3.80
2023,03,30,00,21,3.80
2023,03,30,00,22,3.80
2023,03,30,00,23,3.80
2023,03,30,00,24,3.80
2023,03,30,00,25,3.70
2023,03,30,00,26,3.70
2023,03,30,00,27,3.70
2023,03,30,00,28,3.60
2023,03,30,00,29,3.60
2023,03,30,00,30,3.60
2023,03,30,00,31,3.60
2023,03,30,00,32,3.60
2023,03,30,00,33,3.60
2023,03,30,00,34,3.50
2023,03,30,00,35,3.50
2023,03,30,00,36,3.50
2023,03,30,00,37,3.50
2023,03,30,00,38,3.50
2023,03,30,00,39,3.40
2023,03,30,00,40,3.40
2023,03,30,00,41,3.40
2023,03,30,00,42,3.40
2023,03,30,00,43,3.40
2023,03,30,00,44,3.40
2023,03,30,00,45,3.40
2023,03,30,00,46,3.40
2023,03,30,00,47,3.40
2023,03,30,00,48,3.40
2023,03,30,00,49,3.40
2023,03,30,00,50,3.40
2023,03,30,00,51,3.40
2023,03,30,00,52,3.40
2023,03,30,00,53,3.40
2023,03,30,00,54,3.40
2023,03,30,00,55,3.40
2023,03,30,00,56,3.40
2023,03,30,00,57,3.40
2023,03,30,00,58,3.30
2023,03,30,00,59,3.30
2023,03,30,01,00,3.30
2023,03,30,01,01,3.30
2023,03,30,01,02,3.30
2023,03,30,01,03,3.30
2023,03,30,01,04,3.30
2023,03,30,01,05,3.30
2023,03,30,01,06,3.20
2023,03,30,01,07,3.20
2023,03,30,01,08,3.20
2023,03,30,01,09,3.20
2023,03,30,01,10,3.20
2023,03,30,01,11,3.20
2023,03,30,01,12,3.20
2023,03,30,01,13,3.10
2023,03,30,01,14,3.10
2023,03,30,01,15,3.10
2023,03,30,01,16,3.10
2023,03,30,01,17,3.10
2023,03,30,01,18,3.10
2023,03,30,01,19,3.10
2023,03,30,01,20,3.10
2023,03,30,01,21,3.10
2023,03,30,01,22,3.00
2023,03,30,01,23,3.00
2023,03,30,01,24,3.00
2023,03,30,01,25,3.00
2023,03,30,01,26,3.00
2023,03,30,01,27,3.00
2023,03,30,01,28,3.00
2023,03,30,01,29,3.00
2023,03,30,01,30,3.00
2023,03,30,01,31,2.90
2023,03,30,01,32,2.90
2023,03,30,01,33,2.90
2023,03,30,01,34,2.90
2023,03,30,01,35,2.90
2023,03,30,01,36,2.90
2023,03,30,01,37,2.90
2023,03,30,01,38,2.90
2023,03,30,01,39,2.90
2023,03,30,01,40,2.90
2023,03,30,01,41,2.90
2023,03,30,01,42,2.90
2023,03,30,01,43,2.90
2023,03,30,01,44,2.90
2023,03,30,01,45,2.90
2023,03,30,01,46,2.90
2023,03,30,01,47,2.90
2023,03,30,01,48,2.90
2023,03,30,01,49,2.80
2023,03,30,01,50,2.80
2023,03,30,01,51,2.80
2023,03,30,01,52,2.80
2023,03,30,01,53,2.80
2023,03,30,01,54,2.80
2023,03,30,01,55,2.80
2023,03,30,01,56,2.80
2023,03,30,01,57,2.80
2023,03,30,01,58,2.80
2023,03,30,01,59,2.80
2023,03,30,02,00,2.80
2023,03,30,02,01,2.80
2023,03,30,02,02,2.80
2023,03,30,02,03,2.80
2023,03,30,02,04,2.80
2023,03,30,02,05,2.80
2023,03,30,02,06,2.80
2023,03,30,02,07,2.80
2023,03,30,02,08,2.80
2023,03,30,02,09,2.70
2023,03,30,02,10,2.70
2023,03,30,02,11,2.70
2023,03,30,02,12,2.70
2023,03,30,02,13,2.70
2023,03,30,02,14,2.70
2023,03,30,02,15,2.60
2023,03,30,02,16,2.60
2023,03,30,02,17,2.60
2023,03,30,02,18,2.60
2023,03,30,02,19,2.60
2023,03,30,02,20,2.60
2023,03,30,02,21,2.50
2023,03,30,02,22,2.50
2023,03,30,02,23,2.50
2023,03,30,02,24,2.50
2023,03,30,02,25,2.50
2023,03,30,02,26,2.50
2023,03,30,02,27,2.50
2023,03,30,02,28,2.50
2023,03,30,02,29,2.50
2023,03,30,02,30,2.50
2023,03,30,02,31,2.50
2023,03,30,02,32,2.50
2023,03,30,02,33,2.50
2023,03,30,02,34,2.50
2023,03,30,02,35,2.50
2023,03,30,02,36,2.50
2023,03,30,02,37,2.40
2023,03,30,02,38,2.40
2023,03,30,02,39,2.40
2023,03,30,02,40,2.40
2023,03,30,02,41,2.40
2023,03,30,02,42,2.40
2023,03,30,02,43,2.40
2023,03,30,02,44,2.30
2023,03,30,02,45,2.30
2023,03,30,02,46,2.30
2023,03,30,02,47,2.30
2023,03,30,02,48,2.30
2023,03,30,02,49,2.30
2023,03,30,02,50,2.20
2023,03,30,02,51,2.20
2023,03,30,02,52,2.20
2023,03,30,02,53,2.20
2023,03,30,02,54,2.20
2023,03,30,02,55,2.10
2023,03,30,02,56,2.10
2023,03,30,02,57,2.10
2023,03,30,02,58,2.00
2023,03,30,02,59,2.00
2023,03,30,03,00,2.00
2023,03,30,03,01,2.00
2023,03,30,03,02,2.00
2023,03,30,03,03,2.00
2023,03,30,03,04,1.90
2023,03,30,03,05,1.90
2023,03,30,03,06,1.90
2023,03,30,03,07,1.90
2023,03,30,03,08,1.90
2023,03,30,03,09,1.90
2023,03,30,03,10,1.90
2023,03,30,03,11,1.90
2023,03,30,03,12,1.90
2023,03,30,03,13,1.80
2023,03,30,03,14,1.80
2023,03,30,03,15,1.80
2023,03,30,03,16,1.80
2023,03,30,03,17,1.80
2023,03,30,03,18,1.80
2023,03,30,03,19,1.80
2023,03,30,03,20,1.80
2023,03,30,03,21,1.80
2023,03,30,03,22,1.80
2023,03,30,03,23,1.80
2023,03,30,03,24,1.80
2023,03,30,03,25,1.70
2023,03,30,03,26,1.70
2023,03,30,03,27,1.70
2023,03,30,03,28,1.70
2023,03,30,03,29,1.70
2023,03,30,03,30,1.70
2023,03,30,03,31,1.70
2023,03,30,03,32,1.70
2023,03,30,03,33,1.70
2023,03,30,03,34,1.70
2023,03,30,03,35,1.70
2023,03,30,03,36,1.70
2023,03,30,03,37,1.70
2023,03,30,03,38,1.70
2023,03,30,03,39,1.70
2023,03,30,03,40,1.70
2023,03,30,03,41,1.70
2023,03,30,03,42,1.70
2023,03,30,03,43,1.70
2023,03,30,03,44,1.70
2023,03,30,03,45,1.70
2023,03,30,03,46,1.70
2023,03,30,03,47,1.70
2023,03,30,03,48,1.70
2023,03,30,03,49,1.70
2023,03,30,03,50,1.70
2023,03,30,03,51,1.70
2023,03,30,03,52,1.70
2023,03,30,03,53,1.70
2023,03,30,03,54,1.70
2023,03,30,03,55,1.70
2023,03,30,03,56,1.70
2023,03,30,03,57,1.70
2023,03,30,03,58,1.70
2023,03,30,03,59,1.70
2023,03,30,04,00,1.70
2023,03,30,04,01,1.70
2023,03,30,04,02,1.70
2023,03,30,04,03,1.70
2023,03,30,04,04,1.70
2023,03,30,04,05,1.70
2023,03,30,04,06,1.70
2023,03,30,04,07,1.60
2023,03,30,04,08,1.60
2023,03,30,04,09,1.60
2023,03,30,04,10,1.60
2023,03,30,04,11,1.60
2023,03,30,04,12,1.60
2023,03,30,04,13,1.60
2023,03,30,04,14,1.60
2023,03,30,04,15,1.60
2023,03,30,04,16,1.60
2023,03,30,04,17,1.60
2023,03,30,04,18,1.60
2023,03,30,04,19,1.60
2023,03,30,04,20,1.60
2023,03,30,04,21,1.60
2023,03,30,04,22,1.50
2023,03,30,04,23,1.50
2023,03,30,04,24,1.50
2023,03,30,04,25,1.50
2023,03,30,04,26,1.50
2023,03,30,04,27,1.50
2023,03,30,04,28,1.40
2023,03,30,04,29,1.40
2023,03,30,04,30,1.40
2023,03,30,04,31,1.40
2023,03,30,04,32,1.40
2023,03,30,04,33,1.40
2023,03,30,04,34,1.40
2023,03,30,04,35,1.40
2023,03,30,04,36,1.40
2023,03,30,04,37,1.40
2023,03,30,04,38,1.30
2023,03,30,04,39,1.30
2023,03,30,04,40,1.30
2023,03,30,04,41,1.30
2023,03,30,04,42,1.30
2023,03,30,04,43,1.30
2023,03,30,04,44,1.30
2023,03,30,04,45,1.30
2023,03,30,04,46,1.30
2023,03,30,04,47,1.30
2023,03,30,04,48,1.20
2023,03,30,04,49,1.20
2023,03,30,04,50,1.20
2023,03,30,04,51,1.20
2023,03,30,04,52,1.20
2023,03,30,04,53,1.20
2023,03,30,04,54,1.20
2023,03,30,04,55,1.20
2023,03,30,04,56,1.10
2023,03,30,04,57,1.10
2023,03,30,04,58,1.10
2023,03,30,04,59,1.10
2023,03,30,05,00,1.10
2023,03,30,05,01,1.10
2023,03,30,05,02,1.10
2023,03,30,05,03,1.10
2023,03,30,05,04,1.10
2023,03,30,05,05,1.10
2023,03,30,05,06,1.10
2023,03,30,05,07,1.10
2023,03,30,05,08,1.10
2023,03,30,05,09,1.00
2023,03,30,05,10,1.00
2023,03,30,05,11,1.00
2023,03,30,05,12,1.00
2023,03,30,05,13,1.00
2023,03,30,05,14,0.90
2023,03,30,05,15,1.00
2023,03,30,05,16,0.90
2023,03,30,05,17,0.90
2023,03,30,05,18,0.90
2023,03,30,05,19,0.90
2023,03,30,05,20,0.90
2023,03,30,05,21,0.90
2023,03,30,05,22,0.90
2023,03,30,05,23,0.90
2023,03,30,05,24,0.90
2023,03,30,05,25,0.90
2023,03,30,05,26,0.90
2023,03,30,05,27,0.80
2023,03,30,05,28,0.90
2023,03,30,05,29,0.90
2023,03,30,05,30,0.80
2023,03,30,05,31,0.80
2023,03,30,05,32,0.80
2023,03,30,05,33,0.80
2023,03,30,05,34,0.80
2023,03,30,05,35,0.80
2023,03,30,05,36,0.80
2023,03,30,05,37,0.80
2023,03,30,05,38,0.80
2023,03,30,05,39,0.80
2023,03,30,05,40,0.80
2023,03,30,05,41,0.80
2023,03,30,05,42,0.80
2023,03,30,05,43,0.80
2023,03,30,05,44,0.80
2023,03,30,05,45,0.80
2023,03,30,05,46,0.80
2023,03,30,05,47,0.80
2023,03,30,05,48,0.80
2023,03,30,05,49,0.80
2023,03,30,05,50,0.80
2023,03,30,05,51,0.80
2023,03,30,05,52,0.80
2023,03,30,05,53,0.80
2023,03,30,05,54,0.80
2023,03,30,05,55,0.80
2023,03,30,05,56,0.80
2023,03,30,05,57,0.80
2023,03,30,05,58,0.80
2023,03,30,05,59,0.70
2023,03,30,06,00,0.70
2023,03,30,06,01,0.70
2023,03,30,06,02,0.70
2023,03,30,06,03,0.70
2023,03,30,06,04,0.80
2023,03,30,06,05,0.80
2023,03,30,06,06,0.80
2023,03,30,06,07,0.80
2023,03,30,06,08,0.80
2023,03,30,06,09,0.80
2023,03,30,06,10,0.80
2023,03,30,06,11,0.80
2023,03,30,06,12,0.80
2023,03,30,06,13,0.70
2023,03,30,06,14,0.70
2023,03,30,06,15,0.70
2023,03,30,06,16,0.70
2023,03,30,06,17,0.70
2023,03,30,06,18,0.70
2023,03,30,06,19,0.60
2023,03,30,06,20,0.60
2023,03,30,06,21,0.60
2023,03,30,06,22,0.60
2023,03,30,06,23,0.60
2023,03,30,06,24,0.60
2023,03,30,06,25,0.60
2023,03,30,06,26,0.60
2023,03,30,06,27,0.50
2023,03,30,06,28,0.50
2023,03,30,06,29,0.50
2023,03,30,06,30,0.50
2023,03,30,06,31,0.50
2023,03,30,06,32,0.40
2023,03,30,06,33,0.40
2023,03,30,06,34,0.40
2023,03,30,06,35,0.40
2023,03,30,06,36,0.40
2023,03,30,06,37,0.40
2023,03,30,06,38,0.40
2023,03,30,06,39,0.30
2023,03,30,06,40,0.30
2023,03,30,06,41,0.30
2023,03,30,06,42,0.30
2023,03,30,06,43,0.30
2023,03,30,06,44,0.30
2023,03,30,06,45,0.30
2023,03,30,06,46,0.30
2023,03,30,06,47,0.20
2023,03,30,06,48,0.20
2023,03,30,06,49,0.20
2023,03,30,06,50,0.20
2023,03,30,06,51,0.20
2023,03,30,06,52,0.20
2023,03,30,06,53,0.20
2023,03,30,06,54,0.20
2023,03,30,06,55,0.20
2023,03,30,06,56,0.20
2023,03,30,06,57,0.20
2023,03,30,06,58,0.20
2023,03,30,06,59,0.20
2023,03,30,07,00,0.20
2023,03,30,07,01,0.20
2023,03,30,07,02,0.20
2023,03,30,07,03,0.20
2023,03,30,07,04,0.20
2023,03,30,07,05,0.20
2023,03,30,07,06,0.20
2023,03,30,07,07,0.10
2023,03,30,07,08,0.10
2023,03,30,07,09,0.10
2023,03,30,07,10,0.10
2023,03,30,07,11,0.10
2023,03,30,07,12,0.00
2023,03,30,07,13,0.00
2023,03,30,07,14,0.00
2023,03,30,07,15,0.00
2023,03,30,07,16,0.00
2023,03,30,07,17,-0.10
2023,03,30,07,18,-0.10
2023,03,30,07,19,-0.10
2023,03,30,07,20,-0.10
2023,03,30,07,21,0.00
2023,03,30,07,22,-0.10
2023,03,30,07,23,0.00
2023,03,30,07,24,-0.10
2023,03,30,07,25,-0.10
2023,03,30,07,26,-0.10
2023,03,30,07,27,-0.10
2023,03,30,07,28,-0.10
2023,03,30,07,29,-0.10
2023,03,30,07,30,-0.10
2023,03,30,07,31,0.00
2023,03,30,07,32,0.00
2023,03,30,07,33,0.00
2023,03,30,07,34,0.00
2023,03,30,07,35,0.00
2023,03,30,07,36,0.00
2023,03,30,07,37,0.00
2023,03,30,07,38,0.00
2023,03,30,07,39,0.00
2023,03,30,07,40,0.00
2023,03,30,07,41,0.00
2023,03,30,07,42,0.10
2023,03,30,07,43,0.10
2023,03,30,07,44,0.10
2023,03,30,07,45,0.10
2023,03,30,07,46,0.10
2023,03,30,07,47,0.10
2023,03,30,07,48,0.10
2023,03,30,07,49,0.10
2023,03,30,07,50,0.00
2023,03,30,07,51,0.00
2023,03,30,07,52,0.00
2023,03,30,07,53,0.00
2023,03,30,07,54,0.00
2023,03,30,07,55,0.00
2023,03,30,07,56,0.00
2023,03,30,07,57,0.00
2023,03,30,07,58,0.00
2023,03,30,07,59,0.00
2023,03,30,08,00,0.00
2023,03,30,08,01,0.00
2023,03,30,08,02,0.00
2023,03,30,08,03,0.00
2023,03,30,08,04,0.00
2023,03,30,08,05,0.00
2023,03,30,08,06,0.00
2023,03,30,08,07,-0.10
2023,03,30,08,08,-0.10
2023,03,30,08,09,-0.10
2023,03,30,08,10,-0.10
2023,03,30,08,11,0.00
2023,03,30,08,12,0.00
2023,03,30,08,13,0.00
2023,03,30,08,14,0.00
2023,03,30,08,15,0.00
2023,03,30,08,16,0.00
2023,03,30,08,17,0.00
2023,03,30,08,18,0.00
2023,03,30,08,19,0.00
2023,03,30,08,20,0.00
2023,03,30,08,21,0.10
2023,03,30,08,22,0.10
2023,03,30,08,23,0.10
2023,03,30,08,24,0.10
2023,03,30,08,25,0.10
2023,03,30,08,26,0.10
2023,03,30,08,27,0.10
2023,03,30,08,28,0.10
2023,03,30,08,29,0.10
2023,03,30,08,30,0.10
2023,03,30,08,31,0.20
2023,03,30,08,32,0.20
2023,03,30,08,33,0.20
2023,03,30,08,34,0.20
2023,03,30,08,35,0.20
2023,03,30,08,36,0.30
2023,03,30,08,37,0.30
2023,03,30,08,38,0.30
2023,03,30,08,39,0.30
2023,03,30,08,40,0.30
2023,03,30,08,41,0.40
2023,03,30,08,42,0.40
2023,03,30,08,43,0.40
2023,03,30,08,44,0.50
2023,03,30,08,45,0.50
2023,03,30,08,46,0.60
2023,03,30,08,47,0.60
2023,03,30,08,48,0.60
2023,03,30,08,49,0.60
2023,03,30,08,50,0.60
2023,03,30,08,51,0.70
2023,03,30,08,52,0.70
2023,03,30,08,53,0.70
2023,03,30,08,54,0.70
2023,03,30,08,55,0.70
2023,03,30,08,56,0.70
2023,03,30,08,57,0.80
2023,03,30,08,58,0.80
2023,03,30,08,59,0.80
2023,03,30,09,00,0.80
2023,03,30,09,01,0.80
2023,03,30,09,02,0.80
2023,03,30,09,03,0.80
2023,03,30,09,04,0.80
2023,03,30,09,05,0.80
2023,03,30,09,06,0.90
2023,03,30,09,07,0.90
2023,03,30,09,08,0.90
2023,03,30,09,09,1.00
2023,03,30,09,10,1.00
2023,03,30,09,11,1.10
2023,03,30,09,12,1.10
2023,03,30,09,13,1.10
2023,03,30,09,14,1.20
2023,03,30,09,15,1.20
2023,03,30,09,16,1.20
2023,03,30,09,17,1.30
2023,03,30,09,18,1.30
2023,03,30,09,19,1.30
2023,03,30,09,20,1.40
2023,03,30,09,21,1.40
2023,03,30,09,22,1.50
2023,03,30,09,23,1.50
2023,03,30,09,24,1.60
2023,03,30,09,25,1.60
2023,03,30,09,26,1.60
2023,03,30,09,27,1.70
2023,03,30,09,28,1.70
2023,03,30,09,29,1.80
2023,03,30,09,30,1.80
2023,03,30,09,31,1.90
2023,03,30,09,32,1.90
2023,03,30,09,33,1.90
2023,03,30,09,34,2.00
2023,03,30,09,35,2.10
2023,03,30,09,36,2.10
2023,03,30,09,37,2.20
2023,03,30,09,38,2.20
2023,03,30,09,39,2.30
2023,03,30,09,40,2.30
2023,03,30,09,41,2.40
2023,03,30,09,42,2.40
2023,03,30,09,43,2.50
2023,03,30,09,44,2.50
2023,03,30,09,45,2.60
2023,03,30,09,46,2.70
2023,03,30,09,47,2.70
2023,03,30,09,48,2.80
2023,03,30,09,49,2.90
2023,03,30,09,50,2.90
2023,03,30,09,51,3.00
2023,03,30,09,52,3.00
2023,03,30,09,53,3.10
2023,03,30,09,54,3.10
2023,03,30,09,55,3.20
2023,03,30,09,56,3.20
2023,03,30,09,57,3.20
2023,03,30,09,58,3.30
2023,03,30,09,59,3.40
2023,03,30,10,00,3.40
2023,03,30,10,01,3.50
2023,03,30,10,02,3.50
2023,03,30,10,03,3.60
2023,03,30,10,04,3.60
2023,03,30,10,05,3.70
2023,03,30,10,06,3.70
2023,03,30,10,07,3.80
2023,03,30,10,08,3.80
2023,03,30,10,09,3.90
2023,03,30,10,10,4.00
2023,03,30,10,11,4.10
2023,03,30,10,12,4.20
2023,03,30,10,13,4.20
2023,03,30,10,14,4.30
2023,03,30,10,15,4.30
2023,03,30,10,16,4.40
2023,03,30,10,17,4.40
2023,03,30,10,18,4.50
2023,03,30,10,19,4.60
2023,03,30,10,20,4.70
2023,03,30,10,21,4.90
2023,03,30,10,22,5.00
2023,03,30,10,23,5.20
2023,03,30,10,24,5.30
2023,03,30,10,25,5.50
2023,03,30,10,26,5.70
2023,03,30,10,27,5.80
2023,03,30,10,28,6.00
2023,03,30,10,29,6.10
2023,03,30,10,30,6.20
2023,03,30,10,31,6.30
2023,03,30,10,32,6.40
2023,03,30,10,33,6.50
2023,03,30,10,34,6.50
2023,03,30,10,35,6.60
2023,03,30,10,36,6.70
2023,03,30,10,37,6.80
2023,03,30,10,38,6.80
2023,03,30,10,39,6.90
2023,03,30,10,40,6.90
2023,03,30,10,41,7.00
2023,03,30,10,42,7.00
2023,03,30,10,43,7.10
2023,03,30,10,44,7.20
2023,03,30,10,45,7.30
2023,03,30,10,46,7.30
2023,03,30,10,47,7.30
2023,03,30,10,48,7.40
2023,03,30,10,49,7.40
2023,03,30,10,50,7.50
2023,03,30,10,51,7.50
2023,03,30,10,52,7.60
2023,03,30,10,53,7.60
2023,03,30,10,54,7.70
2023,03,30,10,55,7.70
2023,03,30,10,56,7.70
2023,03,30,10,57,7.70
2023,03,30,10,58,7.70
2023,03,30,10,59,7.70
2023,03,30,11,00,7.70
2023,03,30,11,01,7.70
2023,03,30,11,02,7.70
2023,03,30,11,03,7.70
2023,03,30,11,04,7.70
2023,03,30,11,05,7.70
2023,03,30,11,06,7.80
2023,03,30,11,07,7.80
2023,03,30,11,08,7.80
2023,03,30,11,09,7.80
2023,03,30,11,10,7.80
2023,03,30,11,11,7.80
2023,03,30,11,12,7.90
2023,03,30,11,13,7.90
2023,03,30,11,14,7.90
2023,03,30,11,15,7.90
2023,03,30,11,16,8.00
2023,03,30,11,17,8.00
2023,03,30,11,18,8.10
2023,03,30,11,19,8.10
2023,03,30,11,20,8.10
2023,03,30,11,21,8.10
2023,03,30,11,22,8.10
2023,03,30,11,23,8.10
2023,03,30,11,24,8.20
2023,03,30,11,25,8.20
2023,03,30,11,26,8.20
2023,03,30,11,27,8.20
2023,03,30,11,28,8.30
2023,03,30,11,29,8.30
2023,03,30,11,30,8.30
2023,03,30,11,31,8.30
2023,03,30,11,32,8.30
2023,03,30,11,33,8.30
2023,03,30,11,34,8.40
2023,03,30,11,35,8.40
2023,03,30,11,36,8.40
2023,03,30,11,37,8.40
2023,03,30,11,38,8.40
2023,03,30,11,39,8.40
2023,03,30,11,40,8.40
2023,03,30,11,41,8.40
2023,03,30,11,42,8.40
2023,03,30,11,43,8.40
2023,03,30,11,44,8.40
2023,03,30,11,45,8.40
2023,03,30,11,46,8.40
2023,03,30,11,47,8.40
2023,03,30,11,48,8.40
2023,03,30,11,49,8.40
2023,03,30,11,50,8.50
2023,03,30,11,51,8.50
2023,03,30,11,52,8.50
2023,03,30,11,53,8.50
2023,03,30,11,54,8.60
2023,03,30,11,55,8.60
2023,03,30,11,56,8.60
2023,03,30,11,57,8.60
2023,03,30,11,58,8.70
2023,03,30,11,59,8.70
2023,03,30,12,00,8.70
2023,03,30,12,01,8.80
2023,03,30,12,02,8.80
2023,03,30,12,03,8.80
2023,03,30,12,04,8.90
2023,03,30,12,05,8.90
2023,03,30,12,06,8.90
2023,03,30,12,07,8.90
2023,03,30,12,08,8.90
2023,03,30,12,09,9.00
2023,03,30,12,10,9.00
2023,03,30,12,11,9.10
2023,03,30,12,12,9.10
2023,03,30,12,13,9.10
2023,03,30,12,14,9.10
2023,03,30,12,15,9.10
2023,03,30,12,16,9.20
2023,03,30,12,17,9.20
2023,03,30,12,18,9.20
2023,03,30,12,19,9.20
2023,03,30,12,20,9.20
2023,03,30,12,21,9.30
2023,03,30,12,22,9.30
2023,03,30,12,23,9.30
2023,03,30,12,24,9.40
2023,03,30,12,25,9.40
2023,03,30,12,26,9.40
2023,03,30,12,27,9.40
2023,03,30,12,28,9.40
2023,03,30,12,29,9.50
2023,03,30,12,30,9.50
2023,03,30,12,31,9.50
2023,03,30,12,32,9.50
2023,03,30,12,33,9.50
2023,03,30,12,34,9.50
2023,03,30,12,35,9.50
2023,03,30,12,36,9.60
2023,03,30,12,37,9.60
2023,03,30,12,38,9.60
2023,03,30,12,39,9.60
2023,03,30,12,40,9.60
2023,03,30,12,41,9.60
2023,03,30,12,42,9.60
2023,03,30,12,43,9.70
2023,03,30,12,44,9.70
2023,03,30,12,45,9.70
2023,03,30,12,46,9.80
2023,03,30,12,47,9.80
2023,03,30,12,48,9.80
2023,03,30,12,49,9.80
2023,03,30,12,50,9.80
2023,03,30,12,51,9.80
2023,03,30,12,52,9.80
2023,03,30,12,53,9.80
2023,03,30,12,54,9.90
2023,03,30,12,55,9.90
2023,03,30,12,56,9.90
2023,03,30,12,57,9.90
2023,03,30,12,58,9.90
2023,03,30,12,59,9.90
2023,03,30,13,00,10.00
2023,03,30,13,01,10.00
2023,03,30,13,02,10.10
2023,03,30,13,03,10.10
2023,03,30,13,04,10.10
2023,03,30,13,05,10.20
2023,03,30,13,06,10.20
2023,03,30,13,07,10.20
2023,03,30,13,08,10.20
2023,03,30,13,09,10.30
2023,03,30,13,10,10.30
2023,03,30,13,11,10.30
2023,03,30,13,12,10.30
2023,03,30,13,13,10.30
2023,03,30,13,14,10.30
2023,03,30,13,15,10.40
2023,03,30,13,16,10.40
2023,03,30,13,17,10.40
2023,03,30,13,18,10.40
2023,03,30,13,19,10.50
2023,03,30,13,20,10.50
2023,03,30,13,21,10.50
2023,03,30,13,22,10.50
2023,03,30,13,23,10.50
2023,03,30,13,24,10.60
2023,03,30,13,25,10.60
2023,03,30,13,26,10.70
2023,03,30,13,27,10.80
2023,03,30,13,28,10.80
2023,03,30,13,29,10.80
2023,03,30,13,30,10.80
2023,03,30,13,31,10.80
2023,03,30,13,32,10.80
2023,03,30,13,33,10.90
2023,03,30,13,34,10.90
2023,03,30,13,35,10.90
2023,03,30,13,36,10.90
2023,03,30,13,37,11.00
2023,03,30,13,38,11.00
2023,03,30,13,39,11.10
2023,03,30,13,40,11.10
2023,03,30,13,41,11.20
2023,03,30,13,42,11.20
2023,03,30,13,43,11.20
2023,03,30,13,44,11.20
2023,03,30,13,45,11.30
2023,03,30,13,46,11.30
2023,03,30,13,47,11.30
2023,03,30,13,48,11.30
2023,03,30,13,49,11.30
2023,03,30,13,50,11.30
2023,03,30,13,51,11.30
2023,03,30,13,52,11.30
2023,03,30,13,53,11.40
2023,03,30,13,54,11.40
2023,03,30,13,55,11.40
2023,03,30,13,56,11.50
2023,03,30,13,57,11.50
2023,03,30,13,58,11.60
2023,03,30,13,59,11.60
2023,03,30,14,00,11.60
2023,03,30,14,01,11.60
2023,03,30,14,02,11.70
2023,03,30,14,03,11.70
2023,03,30,14,04,11.70
2023,03,30,14,05,11.80
2023,03,30,14,06,11.80
2023,03,30,14,07,11.80
2023,03,30,14,08,11.80
2023,03,30,14,09,11.80
2023,03,30,14,10,11.80
2023,03,30,14,11,11.80
2023,03,30,14,12,11.80
2023,03,30,14,13,11.70
2023,03,30,14,14,11.70
2023,03,30,14,15,11.60
2023,03,30,14,16,11.60
2023,03,30,14,17,11.60
2023,03,30,14,18,11.60
2023,03,30,14,19,11.50
2023,03,30,14,20,11.50
2023,03,30,14,21,11.50
2023,03,30,14,22,11.50
2023,03,30,14,23,11.40
2023,03,30,14,24,11.40
2023,03,30,14,25,11.40
2023,03,30,14,26,11.40
2023,03,30,14,27,11.40
2023,03,30,14,28,11.40
2023,03,30,14,29,11.40
2023,03,30,14,30,11.30
2023,03,30,14,31,11.30
2023,03,30,14,32,11.30
2023,03,30,14,33,11.40
2023,03,30,14,34,11.40
2023,03,30,14,35,11.40
2023,03,30,14,36,11.40
2023,03,30,14,37,11.40
2023,03,30,14,38,11.40
2023,03,30,14,39,11.40
2023,03,30,14,40,11.40
2023,03,30,14,41,11.50
2023,03,30,14,42,11.50
2023,03,30,14,43,11.60
2023,03,30,14,44,11.60
2023,03,30,14,45,11.70
2023,03,30,14,46,11.70
2023,03,30,14,47,11.70
2023,03,30,14,48,11.70
2023,03,30,14,49,11.70
2023,03,30,14,50,11.70
2023,03,30,14,51,11.70
2023,03,30,14,52,11.70
2023,03,30,14,53,11.70
2023,03,30,14,54,11.70
2023,03,30,14,55,11.70
2023,03,30,14,56,11.70
2023,03,30,14,57,11.70
2023,03,30,14,58,11.70
2023,03,30,14,59,11.70
2023,03,30,15,00,11.70
2023,03,30,15,01,11.70
2023,03,30,15,02,11.60
2023,03,30,15,03,11.60
2023,03,30,15,04,11.60
2023,03,30,15,05,11.60
2023,03,30,15,06,11.60
2023,03,30,15,07,11.60
2023,03,30,15,08,11.60
2023,03,30,15,09,11.50
2023,03,30,15,10,11.40
2023,03,30,15,11,11.40
2023,03,30,15,12,11.40
2023,03,30,15,13,11.40
2023,03,30,15,14,11.30
2023,03,30,15,15,11.30
2023,03,30,15,16,11.30
2023,03,30,15,17,11.30
2023,03,30,15,18,11.30
2023,03,30,15,19,11.30
2023,03,30,15,20,11.20
2023,03,30,15,21,11.20
2023,03,30,15,22,11.20
2023,03,30,15,23,11.20
2023,03,30,15,24,11.30
2023,03,30,15,25,11.30
2023,03,30,15,26,11.30
2023,03,30,15,27,11.30
2023,03,30,15,28,11.30
2023,03,30,15,29,11.30
2023,03,30,15,30,11.30
2023,03,30,15,31,11.30
2023,03,30,15,32,11.30
2023,03,30,15,33,11.30
2023,03,30,15,34,11.30
2023,03,30,15,35,11.30
2023,03,30,15,36,11.30
2023,03,30,15,37,11.30
2023,03,30,15,38,11.40
2023,03,30,15,39,11.40
2023,03,30,15,40,11.40
2023,03,30,15,41,11.50
2023,03,30,15,42,11.50
2023,03,30,15,43,11.50
2023,03,30,15,44,11.50
2023,03,30,15,45,11.50
2023,03,30,15,46,11.50
2023,03,30,15,47,11.50
2023,03,30,15,48,11.50
2023,03,30,15,49,11.60
2023,03,30,15,50,11.60
2023,03,30,15,51,11.60
2023,03,30,15,52,11.60
2023,03,30,15,53,11.60
2023,03,30,15,54,11.60
2023,03,30,15,55,11.50
2023,03,30,15,56,11.50
2023,03,30,15,57,11.50
2023,03,30,15,58,11.40
2023,03,30,15,59,11.30
2023,03,30,16,00,11.20
2023,03,30,16,01,11.20
2023,03,30,16,02,11.10
2023,03,30,16,03,11.00
2023,03,30,16,04,11.00
2023,03,30,16,05,10.90
2023,03,30,16,06,10.90
2023,03,30,16,07,10.80
2023,03,30,16,08,10.80
2023,03,30,16,09,10.80
2023,03,30,16,10,10.70
2023,03,30,16,11,10.60
2023,03,30,16,12,10.60
2023,03,30,16,13,10.60
2023,03,30,16,14,10.50
2023,03,30,16,15,10.60
2023,03,30,16,16,10.60
2023,03,30,16,17,10.60
2023,03,30,16,18,10.60
2023,03,30,16,19,10.60
2023,03,30,16,20,10.60
2023,03,30,16,21,10.60
2023,03,30,16,22,10.60
2023,03,30,16,23,10.60
2023,03,30,16,24,10.50
2023,03,30,16,25,10.50
2023,03,30,16,26,10.50
2023,03,30,16,27,10.40
2023,03,30,16,28,10.40
2023,03,30,16,29,10.40
2023,03,30,16,30,10.30
2023,03,30,16,31,10.30
2023,03,30,16,32,10.20
2023,03,30,16,33,10.10
2023,03,30,16,34,10.10
2023,03,30,16,35,10.00
2023,03,30,16,36,10.00
2023,03,30,16,37,9.90
2023,03,30,16,38,9.90
2023,03,30,16,39,9.90
2023,03,30,16,40,9.90
2023,03,30,16,41,9.90
2023,03,30,16,42,9.80
2023,03,30,16,43,9.80
2023,03,30,16,44,9.80
2023,03,30,16,45,9.80
2023,03,30,16,46,9.80
2023,03,30,16,47,9.80
2023,03,30,16,48,9.90
2023,03,30,16,49,9.80
2023,03,30,16,50,9.90
2023,03,30,16,51,9.90
2023,03,30,16,52,9.90
2023,03,30,16,53,9.90
2023,03,30,16,54,9.90
2023,03,30,16,55,9.90
2023,03,30,16,56,10.00
2023,03,30,16,57,10.00
2023,03,30,16,58,10.10
2023,03,30,16,59,10.10
2023,03,30,17,00,10.10
2023,03,30,17,01,10.20
2023,03,30,17,02,10.20
2023,03,30,17,03,10.20
2023,03,30,17,04,10.20
2023,03,30,17,05,10.30
2023,03,30,17,06,10.20
2023,03,30,17,07,10.20
2023,03,30,17,08,10.20
2023,03,30,17,09,10.20
2023,03,30,17,10,10.10
2023,03,30,17,11,10.10
2023,03,30,17,12,10.10
2023,03,30,17,13,10.10
2023,03,30,17,14,10.10
2023,03,30,17,15,10.10
2023,03,30,17,16,10.10
2023,03,30,17,17,10.10
2023,03,30,17,18,10.10
2023,03,30,17,19,10.10
2023,03,30,17,20,10.00
2023,03,30,17,21,10.00
2023,03,30,17,22,10.10
2023,03,30,17,23,10.10
2023,03,30,17,24,10.10
2023,03,30,17,25,10.10
2023,03,30,17,26,10.20
2023,03,30,17,27,10.20
2023,03,30,17,28,10.20
2023,03,30,17,29,10.10
2023,03,30,17,30,10.10
2023,03,30,17,31,10.00
2023,03,30,17,32,10.00
2023,03,30,17,33,9.90
2023,03,30,17,34,9.90
2023,03,30,17,35,9.90
2023,03,30,17,36,9.90
2023,03,30,17,37,9.80
2023,03,30,17,38,9.80
2023,03,30,17,39,9.80
2023,03,30,17,40,9.80
2023,03,30,17,41,9.80
2023,03,30,17,42,9.80
2023,03,30,17,43,9.80
2023,03,30,17,44,9.80
2023,03,30,17,45,9.80
2023,03,30,17,46,9.80
2023,03,30,17,47,9.70
2023,03,30,17,48,9.70
2023,03,30,17,49,9.70
2023,03,30,17,50,9.70
2023,03,30,17,51,9.60
2023,03,30,17,52,9.60
2023,03,30,17,53,9.60
2023,03,30,17,54,9.60